Home > Time Zones > World Clock > Weather > Spain > Jaén > Past weeks

Flag for Spain Weather past 2 weeks in Jaén, Spain

Now
59 °F

Clear.


Feels Like: 59 °F
Forecast: 56 / 81 °F
Wind: No wind

Location: Granada / Aeropuerto

Current Time: Sep 3, 2015 at 7:13:30 AM

Latest Report: Sep 3, 2015 at 6:30 AM


Visibility: 10 mi

Pressure: 30.01 "Hg (28.07 "Hg at 565m altitude)

Humidity: 82%

Dew point: 54 °F

Location of JaénLocation

Historic Weather in Jaén — Graph

°F

Jaén temperature yesterday

Maximum temperature yesterday: 90 °F (at 3:00 PM)
Minimum temperature yesterday: 55 °F (at 7:30 AM)
Average temperature yesterday: 77 °F

Past Weeks' High & Low Weather Summary

 TemperatureHumidityPressure
High100 °F (Aug 28, 4:30 PM)88% (Aug 20, 8:00 AM)30.18 "Hg (Aug 20, 8:00 AM)
Low55 °F (Aug 25, 8:00 AM)9% (Sep 2, 5:00 PM)29.95 "Hg (Aug 22, 5:00 PM)
Average81 °F44%30.05 "Hg
* Reported Aug 18 11:00 PM — Sep 2 11:00 PM, Jaén, Weather by CustomWeather, © 2015

Note: Actual official high and low records may vary slightly from our data, if they occured in-between our weather recording intervals... More about our weather records

Advertising

Jaén weather history for previous 24 hours

 ConditionsComfort  
Time TempWeatherWind HumidityBarometerVisibility
11:00 PM
Wed, Sep 2
70 °FClear.No wind33%29.98 "Hg10 mi
10:30 PM73 °FClear.8 mph23%29.98 "Hg10 mi
10:00 PM75 °FClear.8 mph22%29.98 "Hg10 mi
9:30 PM77 °FSunny.8 mph24%29.98 "Hg10 mi
9:00 PM79 °FSunny.12 mph23%29.95 "Hg10 mi
8:30 PM81 °FSunny.10 mph23%29.95 "Hg10 mi
8:00 PM84 °FSunny.8 mph15%29.95 "Hg10 mi
7:30 PM86 °FPassing clouds.10 mph11%29.95 "HgN/A
7:00 PM88 °FPassing clouds.12 mph11%29.95 "HgN/A
6:30 PM90 °FPassing clouds.13 mph11%29.95 "HgN/A
6:00 PM90 °FPassing clouds.10 mph9%29.95 "HgN/A
5:30 PM90 °FPassing clouds.9 mph10%29.95 "HgN/A
5:00 PM90 °FPassing clouds.10 mph9%29.95 "HgN/A
4:30 PM90 °FSunny.13 mph11%29.98 "Hg10 mi
4:00 PM90 °FSunny.15 mph10%29.98 "Hg10 mi
3:30 PM90 °FPassing clouds.16 mph10%29.98 "HgN/A
3:00 PM90 °FPassing clouds.15 mph12%29.98 "HgN/A
2:30 PM88 °FSunny.5 mph13%29.98 "Hg10 mi
2:00 PM86 °FPassing clouds.8 mph22%30.01 "HgN/A
1:30 PM84 °FSunny.6 mph25%30.01 "Hg10 mi
1:00 PM82 °FPassing clouds.5 mph26%30.01 "HgN/A
12:30 PM79 °FSunny.5 mph37%30.04 "Hg10 mi
12:00 PM75 °FSunny.2 mph44%30.04 "Hg10 mi
11:00 AM72 °FSunny.1 mph57%30.04 "Hg10 mi
10:30 AM68 °FSunny.2 mph64%30.04 "Hg10 mi
10:00 AM66 °FSunny.1 mph68%30.04 "Hg10 mi
9:30 AM64 °FSunny.No wind68%30.04 "Hg10 mi
9:00 AM63 °FSunny.No wind73%30.04 "Hg10 mi
8:30 AM57 °FClear.1 mph82%30.04 "Hg10 mi
8:00 AM55 °FClear.No wind82%30.04 "Hg10 mi
7:30 AM55 °FClear.No wind82%30.04 "Hg10 mi
7:00 AM57 °FClear.1 mph77%30.01 "Hg10 mi
Weather by CustomWeather, © 2015

See weather overviewHow to use our weather pages